Home   Weather   Valladolid   Past weeks

Flag for Spain Past Weather in Valladolid, Spain — Yesterday and Last 2 Weeks

Now
39 °F

Fog.


Feels Like: 39 °F
Forecast: 37 / 51 °F
Wind: No wind

Location: Valladolid / Villanubla

Current Time: Dec 6, 2016 at 7:11:51 pm

Latest Report: Dec 6, 2016 at 6:30 pm


Visibility: 0 mi

Pressure: 30.36 "Hg (27.81 "Hg at 712m altitude)

Humidity: 100%

Dew Point: 39 °F

Location of ValladolidLocation

Past Weather in Valladolid — Graph

°F

Valladolid Temperature Yesterday

Maximum temperature yesterday: 54 °F (at 3:30 pm)
Minimum temperature yesterday: 41 °F (at 9:30 pm)
Average temperature yesterday: 47 °F

High & Low Weather Summary for the Past Weeks

 TemperatureHumidityPressure
High54 °F (Nov 30, 1:30 pm)100% (Nov 22, 7:00 am)30.36 "Hg (Nov 22, 7:00 am)
Low28 °F (Nov 29, 8:00 am)58% (Nov 30, 2:00 pm)29.62 "Hg (Nov 21, 6:00 pm)
Average43 °F87%29.94 "Hg
* Reported Nov 21 6:00 pm — Dec 6 6:00 pm, Valladolid, Weather by CustomWeather, © 2016

Note: Actual official high and low records may vary slightly from our data, if they occured in-between our weather recording intervals... More about our weather records

Advertising

Valladolid Weather History for the Previous 24 Hours

Scroll right to see more
 ConditionsComfort  
Time TempWeatherWind HumidityBarometerVisibility
6:00 pm
Tue, Dec 6
41 °FFog.2 mph100%30.36 "Hg0 mi
5:30 pm41 °FFog.No wind100%30.36 "Hg0 mi
5:00 pm41 °FFog.No wind100%30.36 "Hg0 mi
4:30 pm41 °FFog.No wind100%30.36 "Hg0 mi
4:00 pm41 °FFog.No wind100%30.33 "Hg0 mi
3:30 pm41 °FFog.No wind100%30.33 "Hg0 mi
3:00 pm41 °FFog.1 mph100%30.33 "Hg0 mi
2:30 pm41 °FFog.2 mph100%30.33 "Hg0 mi
2:00 pm41 °FFog.2 mph100%30.33 "Hg0 mi
1:30 pm41 °FFog.1 mph100%30.36 "Hg0 mi
1:00 pm39 °FFog.3 mph100%30.36 "Hg0 mi
12:30 pm39 °FFog.5 mph100%30.36 "Hg0 mi
12:00 pm39 °FFog.6 mph100%30.36 "Hg0 mi
11:30 am39 °FFog.6 mph100%30.36 "Hg0 mi
11:00 am37 °FFog.6 mph100%30.36 "Hg0 mi
10:30 am37 °FScattered clouds.6 mph100%30.36 "Hg1 mi
10:00 am37 °FFog.1 mph100%30.36 "Hg2 mi
9:30 am34 °FFog.3 mph100%30.36 "Hg2 mi
9:00 am32 °FIce fog.3 mph100%30.33 "Hg2 mi
8:30 am32 °FIce fog.5 mph100%30.33 "Hg2 mi
8:00 am32 °FLight fog.3 mph100%30.33 "Hg1 mi
7:30 am34 °FLight fog.1 mph100%30.30 "Hg1 mi
7:00 am34 °FLight fog.2 mph100%30.30 "Hg1 mi
9:30 pm
Mon, Dec 5
41 °FClear.7 mph93%30.21 "Hg10 mi
9:00 pm43 °FClear.2 mph100%30.21 "Hg10 mi
8:30 pm43 °FClear.No wind100%30.21 "Hg10 mi
8:00 pm45 °FClear.6 mph93%30.18 "Hg10 mi
7:30 pm43 °FClear.7 mph93%30.18 "Hg10 mi
7:00 pm43 °FClear.6 mph100%30.18 "Hg10 mi
Weather by CustomWeather, © 2016

See weather overviewHow to use our weather pages